Meridian, MS

2:59 PM CDT on August 28, 2016 (GMT -0500)
Meridian Naval Air Station

Weather History for KNMM - September, 2012

Change the Weather History Date:

Saturday, September 1, 2012

  Actual Average Record
Temperature  
Mean Temperature 82 °F -  
Max Temperature 90 °F 86 °F 98 °F (2011)
Min Temperature 75 °F 67 °F 64 °F (2004)
Cooling Degree Days 18    
Growing Degree Days 32 (Base 50)    
Moisture  
Dew Point 74 °F    
Average Humidity 82    
Maximum Humidity 97    
Minimum Humidity 59    
Precipitation  
Precipitation 0.12 in - - ()
Sea Level Pressure  
Sea Level Pressure 30.13 in    
Wind  
Wind Speed 4 mph (SSW)    
Max Wind Speed 13 mph    
Max Gust Speed 17 mph    
Visibility 10 miles    
Events Rain , Thunderstorm    
Averages and records for this station are not official NWS values.
T = Trace of Precipitation, MM = Missing Value Source: NWS Daily Summary

Daily Weather History Graph

Daily Weather History Graph

Search for Another Location

Airport or City:

Trip Planner

Search our weather history database for the weather conditions in past years. The results will help you decide how hot, cold, wet, or windy it might be!

Date:

Astronomy

Sep. 01, 2012 Rise Set
Actual Time 6:29 AM CDT 7:18 PM CDT
Civil Twilight 6:04 AM CDT 7:43 PM CDT
Nautical Twilight 5:34 AM CDT 8:12 PM CDT
Astronomical Twilight 5:04 AM CDT 8:42 PM CDT
Moon 7:43 PM CDT (9/1) 7:29 AM CDT (9/1)
Length of Visible Light 13h 38m
Length of Day
12h 48m
Full, 99% of the Moon is Illuminated
Sep 1
Full
Sep 8
Last Quarter
Sep 15
New
Sep 22
First Quarter
Sep 29
Full

Hourly Weather History & Observations

Time (CDT) Temp. Heat Index Dew Point Humidity Pressure Visibility Wind Dir Wind Speed Gust Speed Precip Events Conditions
12:23 AM 75.2 °F - 73.4 °F 94% 30.13 in 10.0 mi SSE 3.5 mph - N/A   Overcast
12:56 AM 75.0 °F - 73.9 °F 96% 30.14 in 10.0 mi SSE 3.5 mph - N/A   Overcast
1:56 AM 77.0 °F - 73.9 °F 90% 30.14 in 10.0 mi South 3.5 mph - N/A   Overcast
2:37 AM 77.0 °F - 73.4 °F 89% 30.12 in 10.0 mi South 4.6 mph - N/A   Overcast
2:51 AM 77.0 °F - 73.4 °F 89% 30.12 in 10.0 mi South 4.6 mph - N/A   Overcast
2:56 AM 77.0 °F - 73.9 °F 90% 30.14 in 10.0 mi South 3.5 mph - N/A   Overcast
3:56 AM 78.1 °F - 73.9 °F 87% 30.14 in 10.0 mi SSW 3.5 mph - N/A   Overcast
4:17 AM 78.8 °F - 73.4 °F 83% 30.12 in 10.0 mi South 5.8 mph - N/A   Overcast
4:56 AM 77.0 °F - 73.9 °F 90% 30.14 in 10.0 mi South 3.5 mph - N/A   Overcast
5:52 AM 77.0 °F - 73.4 °F 89% 30.13 in 10.0 mi South 3.5 mph - N/A   Overcast
5:56 AM 77.0 °F - 73.9 °F 90% 30.15 in 10.0 mi SSE 3.5 mph - N/A   Mostly Cloudy
6:10 AM 75.2 °F - 73.4 °F 94% 30.13 in 10.0 mi South 3.5 mph - N/A   Scattered Clouds
6:56 AM 75.9 °F - 73.0 °F 91% 30.17 in 8.0 mi Calm Calm - N/A   Clear
7:56 AM 77.0 °F - 73.9 °F 90% 30.19 in 10.0 mi South 3.5 mph - N/A   Partly Cloudy
8:43 AM 80.6 °F 85.4 °F 73.4 °F 79% 30.17 in 10.0 mi SSW 8.1 mph - N/A   Mostly Cloudy
8:56 AM 80.1 °F 84.5 °F 73.9 °F 81% 30.19 in 10.0 mi South 6.9 mph - N/A   Mostly Cloudy
9:45 AM 82.4 °F 88.2 °F 73.4 °F 74% 30.17 in 10.0 mi SSW 6.9 mph - N/A   Partly Cloudy
9:56 AM 82.9 °F 88.8 °F 73.0 °F 72% 30.19 in 10.0 mi SW 9.2 mph 16.1 mph N/A   Partly Cloudy
10:14 AM 84.2 °F 90.9 °F 73.4 °F 70% 30.18 in 10.0 mi SSW 8.1 mph - N/A   Mostly Cloudy
10:31 AM 82.4 °F 88.2 °F 73.4 °F 74% 30.18 in 10.0 mi Variable 6.9 mph - N/A   Mostly Cloudy
10:38 AM 84.2 °F 90.9 °F 73.4 °F 70% 30.18 in 10.0 mi SW 8.1 mph - N/A   Scattered Clouds
10:56 AM 84.9 °F 91.4 °F 73.0 °F 67% 30.20 in 10.0 mi South 6.9 mph - N/A   Scattered Clouds
11:30 AM 87.8 °F 95.6 °F 73.4 °F 62% 30.17 in 10.0 mi Variable 4.6 mph - N/A   Mostly Cloudy
11:48 AM 86.0 °F 93.4 °F 73.4 °F 66% 30.16 in 10.0 mi SSW 8.1 mph - N/A   Mostly Cloudy
11:56 AM 87.1 °F 95.4 °F 73.9 °F 65% 30.18 in 10.0 mi Variable 5.8 mph - N/A   Scattered Clouds
12:56 PM 90.0 °F 99.0 °F 73.9 °F 59% 30.15 in 10.0 mi SSW 5.8 mph - N/A   Scattered Clouds
1:38 PM 82.4 °F 87.2 °F 71.6 °F 70% 30.12 in 10.0 mi WNW 12.7 mph - N/A Thunderstorm Thunderstorm
1:56 PM 82.9 °F 88.0 °F 72.0 °F 69% 30.13 in 10.0 mi West 5.8 mph - N/A   Partly Cloudy
2:04 PM 80.6 °F 85.4 °F 73.4 °F 79% 30.10 in 7.0 mi Calm Calm - 0.01 in Rain , Thunderstorm Light Thunderstorms and Rain
2:19 PM 84.2 °F 92.3 °F 75.2 °F 74% 30.09 in 10.0 mi Calm Calm - 0.01 in Thunderstorm Thunderstorm
2:51 PM 80.6 °F 86.2 °F 75.2 °F 84% 30.09 in 1.8 mi Variable 4.6 mph 17.3 mph 0.09 in Rain Heavy Rain
2:56 PM 80.1 °F 85.1 °F 75.0 °F 85% 30.11 in 1.5 mi West 6.9 mph - 0.10 in Rain Light Rain
3:40 PM 84.2 °F 92.3 °F 75.2 °F 74% 30.08 in 10.0 mi Calm Calm - 0.00 in Thunderstorm Thunderstorm
3:56 PM 82.9 °F 91.8 °F 77.0 °F 82% 30.11 in 10.0 mi WNW 4.6 mph - 0.00 in Thunderstorm Thunderstorm
4:40 PM 78.8 °F - 73.4 °F 83% 30.08 in 10.0 mi West 3.5 mph - N/A   Mostly Cloudy
4:56 PM 78.1 °F - 75.0 °F 90% 30.09 in 10.0 mi WSW 3.5 mph - N/A   Partly Cloudy
5:56 PM 81.0 °F 86.7 °F 75.0 °F 82% 30.09 in 10.0 mi West 6.9 mph - N/A   Clear
6:56 PM 79.0 °F - 75.0 °F 88% 30.08 in 10.0 mi Calm Calm - 0.02 in Rain Light Rain
7:56 PM 78.1 °F - 75.0 °F 90% 30.08 in 10.0 mi Calm Calm - 0.00 in   Clear
8:56 PM 75.9 °F - 75.0 °F 97% 30.10 in 9.0 mi Calm Calm - N/A   Partly Cloudy
9:56 PM 77.0 °F - 73.9 °F 90% 30.11 in 10.0 mi Variable 3.5 mph - N/A   Clear
10:56 PM 77.0 °F - 73.0 °F 88% 30.09 in 10.0 mi Calm Calm - N/A   Clear
11:56 PM 75.0 °F - 73.0 °F 94% 30.09 in 10.0 mi South 3.5 mph - N/A   Clear